| time (UTC) | temp F | wind direction | speed knots | gust knots | rain 1hr in | rain 24hr in | rain mn in | humidity % | barometer mb |
| 20260506033016 | 64 | 52 | 0.0 | 0.0 | 0.00 | 0.00 | 0.00 | 67 | 1004.8 |
| 20260506031512 | 65 | 51 | 0.0 | 1.7 | 0.00 | 0.00 | 0.00 | 66 | 1005.1 |
| 20260506030010 | 66 | 51 | 0.0 | 0.9 | 0.00 | 0.00 | 0.00 | 63 | 1005.0 |
| 20260506024527 | 67 | 51 | 0.0 | 2.6 | 0.00 | 0.00 | 0.00 | 62 | 1005.1 |
| 20260506023010 | 67 | 224 | 0.0 | 1.7 | 0.00 | 0.00 | 0.00 | 61 | 1005.1 |
| 20260506021509 | 68 | 225 | 0.0 | 1.7 | 0.00 | 0.00 | 0.00 | 60 | 1005.2 |
| 20260506020008 | 68 | 225 | 0.0 | 0.9 | 0.00 | 0.00 | 0.00 | 59 | 1005.4 |
| 20260506014509 | 69 | 225 | 0.0 | 0.9 | 0.00 | 0.00 | 0.00 | 58 | 1005.2 |
| 20260506013007 | 69 | 225 | 0.0 | 0.0 | 0.00 | 0.00 | 0.00 | 57 | 1005.0 |
| 20260506011507 | 69 | 225 | 0.0 | 0.9 | 0.00 | 0.00 | 0.00 | 57 | 1004.9 |
| 20260506010007 | 70 | 225 | 0.0 | 1.7 | 0.00 | 0.00 | 0.00 | 57 | 1004.9 |
| 20260506004507 | 70 | 225 | 0.0 | 1.7 | 0.00 | 0.00 | 0.00 | 55 | 1004.8 |
| 20260506003005 | 70 | 226 | 0.0 | 0.0 | 0.00 | 0.00 | 0.00 | 55 | 1004.6 |
| 20260506001505 | 71 | 226 | 0.0 | 0.9 | 0.00 | 0.00 | 0.00 | 55 | 1004.3 |
| 20260506000007 | 72 | 226 | 0.0 | 0.9 | 0.00 | 0.00 | 0.00 | 54 | 1004.3 |
| 20260505234504 | 72 | 226 | 0.0 | 0.9 | 0.00 | 0.00 | 0.00 | 52 | 1004.2 |
| 20260505233003 | 73 | 226 | 0.0 | 0.9 | 0.00 | 0.00 | 0.00 | 50 | 1004.2 |
| 20260505231503 | 74 | 226 | 0.0 | 0.9 | 0.00 | 0.00 | 0.00 | 49 | 1004.1 |
| 20260505230002 | 75 | 226 | 0.0 | 1.7 | 0.00 | 0.00 | 0.00 | 46 | 1003.9 |
| 20260505224501 | 76 | 226 | 0.9 | 6.1 | 0.00 | 0.00 | 0.00 | 44 | 1003.8 |
| 20260505223001 | 77 | 248 | 1.7 | 4.3 | 0.00 | 0.00 | 0.00 | 41 | 1003.6 |
| 20260505221602 | 77 | 238 | 1.7 | 9.6 | 0.00 | 0.00 | 0.00 | 38 | 1003.6 |
| 20260505220100 | 77 | 237 | 0.9 | 7.8 | 0.00 | 0.00 | 0.00 | 39 | 1003.5 |
| 20260505214621 | 78 | 205 | 1.7 | 5.2 | 0.00 | 0.00 | 0.00 | 37 | 1003.3 |
| 20260505213104 | 78 | 209 | 1.7 | 4.3 | 0.00 | 0.00 | 0.00 | 36 | 1003.1 |
| 20260505211607 | 79 | 254 | 2.6 | 7.0 | 0.00 | 0.00 | 0.00 | 35 | 1002.9 |
| 20260505210057 | 79 | 221 | 2.6 | 6.1 | 0.00 | 0.00 | 0.00 | 35 | 1003.0 |
| 20260505204557 | 79 | 244 | 2.6 | 12.2 | 0.00 | 0.00 | 0.00 | 35 | 1003.2 |
| 20260505203057 | 79 | 232 | 4.3 | 9.6 | 0.00 | 0.00 | 0.00 | 35 | 1003.0 |
| 20260505201558 | 79 | 244 | 4.3 | 13.0 | 0.00 | 0.00 | 0.00 | 36 | 1003.0 |
| 20260505200105 | 78 | 203 | 5.2 | 13.0 | 0.00 | 0.00 | 0.00 | 35 | 1003.0 |
| 20260505194556 | 78 | 234 | 6.1 | 15.6 | 0.00 | 0.00 | 0.00 | 36 | 1003.0 |
| 20260505193053 | 80 | 211 | 6.1 | 14.8 | 0.00 | 0.00 | 0.00 | 38 | 1003.3 |
| 20260505191552 | 81 | 217 | 3.5 | 10.4 | 0.00 | 0.00 | 0.00 | 41 | 1003.3 |
| 20260505190052 | 80 | 250 | 3.5 | 13.0 | 0.00 | 0.00 | 0.00 | 42 | 1003.5 |
| 20260505184547 | 81 | 223 | 4.3 | 8.7 | 0.00 | 0.00 | 0.00 | 45 | 1003.8 |
| 20260505183054 | 80 | 162 | 4.3 | 9.6 | 0.00 | 0.00 | 0.00 | 46 | 1004.0 |
| 20260505181543 | 80 | 217 | 3.5 | 13.0 | 0.00 | 0.00 | 0.00 | 43 | 1004.3 |
| 20260505180046 | 80 | 190 | 5.2 | 12.2 | 0.00 | 0.00 | 0.00 | 45 | 1004.7 |
| 20260505174550 | 78 | 94 | 3.5 | 9.6 | 0.00 | 0.00 | 0.00 | 48 | 1004.7 |
| 20260505173040 | 78 | 223 | 4.3 | 10.4 | 0.00 | 0.00 | 0.00 | 45 | 1004.9 |
| 20260505171545 | 80 | 202 | 4.3 | 8.7 | 0.00 | 0.00 | 0.00 | 47 | 1004.7 |
| 20260505170035 | 79 | 194 | 3.5 | 8.7 | 0.00 | 0.00 | 0.00 | 48 | 1004.8 |
| 20260505164535 | 76 | 200 | 2.6 | 6.1 | 0.00 | 0.00 | 0.00 | 50 | 1005.1 |
| 20260505163033 | 76 | 226 | 2.6 | 6.1 | 0.00 | 0.00 | 0.00 | 48 | 1005.4 |
| 20260505161531 | 76 | 232 | 1.7 | 6.1 | 0.00 | 0.00 | 0.00 | 49 | 1005.6 |
| 20260505153026 | 75 | 205 | 3.5 | 7.8 | 0.00 | 0.00 | 0.00 | 53 | 1006.0 |
| 20260505151522 | 74 | 193 | 2.6 | 8.7 | 0.00 | 0.00 | 0.00 | 54 | 1006.2 |
| 20260505124550 | 64 | 210 | 2.6 | 7.0 | 0.00 | 0.00 | 0.00 | 66 | 1006.9 |
| 20260505123053 | 63 | 217 | 1.7 | 6.1 | 0.00 | 0.00 | 0.00 | 67 | 1007.0 |
| 20260505121547 | 63 | 205 | 1.7 | 3.5 | 0.00 | 0.00 | 0.00 | 68 | 1007.1 |
| 20260505120050 | 62 | 182 | 0.9 | 6.1 | 0.00 | 0.00 | 0.00 | 68 | 1006.8 |
| 20260505114551 | 61 | 200 | 2.6 | 5.2 | 0.00 | 0.00 | 0.00 | 69 | 1006.7 |
| 20260505113043 | 61 | 229 | 3.5 | 7.0 | 0.00 | 0.00 | 0.00 | 69 | 1006.9 |
| 20260505111541 | 61 | 221 | 3.5 | 7.0 | 0.00 | 0.00 | 0.00 | 69 | 1006.7 |
| 20260505101546 | 60 | 231 | 4.3 | 9.6 | 0.00 | 0.00 | 0.00 | 68 | 1006.3 |
| 20260505100037 | 61 | 203 | 3.5 | 7.0 | 0.00 | 0.00 | 0.00 | 68 | 1006.1 |
| 20260505094538 | 61 | 231 | 2.6 | 7.0 | 0.00 | 0.00 | 0.00 | 68 | 1005.9 |
| 20260505093032 | 59 | 260 | 1.7 | 6.1 | 0.00 | 0.00 | 0.00 | 71 | 1005.9 |
| 20260505091534 | 59 | 242 | 1.7 | 4.3 | 0.00 | 0.00 | 0.00 | 71 | 1005.8 |
| 20260505090028 | 60 | 236 | 0.9 | 4.3 | 0.00 | 0.00 | 0.00 | 70 | 1005.8 |
| 20260505084527 | 60 | 202 | 0.0 | 4.3 | 0.00 | 0.00 | 0.00 | 70 | 1005.9 |
| 20260505083025 | 61 | 194 | 0.0 | 4.3 | 0.00 | 0.00 | 0.00 | 69 | 1005.8 |
| 20260505081525 | 61 | 209 | 1.7 | 7.8 | 0.00 | 0.00 | 0.00 | 68 | 1005.7 |
| 20260505080021 | 61 | 172 | 3.5 | 7.0 | 0.00 | 0.00 | 0.00 | 67 | 1005.7 |
| 20260505074520 | 62 | 227 | 3.5 | 8.7 | 0.00 | 0.00 | 0.00 | 65 | 1005.6 |
| 20260505073020 | 62 | 182 | 2.6 | 8.7 | 0.00 | 0.00 | 0.00 | 65 | 1005.5 |
| 20260505071529 | 62 | 198 | 1.7 | 7.0 | 0.00 | 0.00 | 0.00 | 64 | 1005.3 |
| 20260505070015 | 62 | 201 | 1.7 | 7.0 | 0.00 | 0.00 | 0.00 | 63 | 1005.4 |
| 20260505064513 | 63 | 216 | 2.6 | 4.3 | 0.00 | 0.00 | 0.00 | 62 | 1005.5 |
| 20260505063012 | 63 | 205 | 1.7 | 4.3 | 0.00 | 0.00 | 0.00 | 60 | 1005.7 |
| 20260505061517 | 64 | 204 | 2.6 | 6.1 | 0.00 | 0.00 | 0.00 | 59 | 1005.7 |
| 20260505060033 | 64 | 212 | 3.5 | 7.8 | 0.00 | 0.00 | 0.00 | 58 | 1005.7 |
| 20260505054512 | 64 | 180 | 3.5 | 7.0 | 0.00 | 0.00 | 0.00 | 58 | 1005.9 |
| 20260505053009 | 64 | 222 | 2.6 | 7.0 | 0.00 | 0.00 | 0.00 | 58 | 1005.9 |
| 20260505051517 | 64 | 256 | 4.3 | 11.3 | 0.00 | 0.00 | 0.00 | 55 | 1006.0 |
| 20260505041604 | 62 | 193 | 1.7 | 2.6 | 0.00 | 0.00 | 0.00 | 58 | 1005.7 |
| 20260505040057 | 63 | 205 | 0.0 | 6.1 | 0.00 | 0.00 | 0.00 | 57 | 1005.6 |
| 20260505034557 | 63 | 202 | 0.9 | 4.3 | 0.00 | 0.00 | 0.00 | 56 | 1005.5 |